Weather History for PAPG - February, 2012

Change the Weather History Date:

Friday, February 17, 2012

  Actual Average Record
Temperature  
Mean Temperature 38 °F -  
Max Temperature 41 °F 36 °F 48 °F (1998)
Min Temperature 35 °F 28 °F 6 °F (2011)
Degree Days  
Heating Degree Days 27    
Moisture  
Dew Point 34 °F    
Average Humidity 89    
Maximum Humidity 93    
Minimum Humidity 81    
Precipitation  
Precipitation 0.00 in - - ()
Sea Level Pressure  
Sea Level Pressure 29.88 in    
Wind  
Wind Speed 2 mph (WSW)    
Max Wind Speed 7 mph    
Max Gust Speed -    
Visibility 10 miles    
Events      
Averages and records for this station are not official NWS values.
T = Trace of Precipitation, MM = Missing Value Source: NWS Daily Summary

Daily Weather History Graph

Daily Weather History Graph

Search for Another Location

Airport or City:

Trip Planner

Search our weather history database for the weather conditions in past years. The results will help you decide how hot, cold, wet, or windy it might be!

Date:

Astronomy

Feb. 17, 2012 Rise Set
Actual Time 7:15 AM AKST 4:57 PM AKST
Civil Twilight 6:35 AM AKST 5:36 PM AKST
Nautical Twilight 5:51 AM AKST 6:21 PM AKST
Astronomical Twilight 5:07 AM AKST 7:05 PM AKST
Moon 4:52 AM AKST (2/17) 12:19 PM AKST (2/17)
Length of Visible Light 11h 00m
Length of Day
9h 41m
Waning Crescent, 18% of the Moon is Illuminated
Feb 17
Waning Crescent
Feb 21
New
Feb 29
First Quarter
Mar 8
Full
Mar 14
Last Quarter

Hourly Weather History & Observations

Time (AKST) Temp. Windchill Dew Point Humidity Pressure Visibility Wind Dir Wind Speed Gust Speed Precip Events Conditions
12:16 AM 37.4 °F - 33.8 °F 87% 29.98 in 10.0 mi Calm Calm - N/A   Overcast
12:36 AM 37.4 °F 33.8 °F 32.0 °F 81% 29.98 in 10.0 mi SSW 4.6 mph - N/A   Overcast
12:56 AM 37.4 °F 34.9 °F 33.8 °F 87% 29.98 in 10.0 mi WNW 3.5 mph - N/A   Overcast
1:16 AM 35.6 °F - 33.8 °F 93% 29.97 in 10.0 mi Calm Calm - N/A   Overcast
1:36 AM 37.4 °F 34.9 °F 33.8 °F 87% 29.97 in 10.0 mi North 3.5 mph - N/A   Overcast
1:56 AM 35.6 °F - 33.8 °F 93% 29.97 in 10.0 mi Calm Calm - N/A   Overcast
2:16 AM 35.6 °F 31.7 °F 33.8 °F 93% 29.96 in 10.0 mi WNW 4.6 mph - N/A   Overcast
2:36 AM 35.6 °F - 33.8 °F 93% 29.96 in 10.0 mi Calm Calm - N/A   Overcast
2:56 AM 35.6 °F 31.7 °F 33.8 °F 93% 29.95 in 10.0 mi WSW 4.6 mph - N/A   Overcast
3:16 AM 35.6 °F - 33.8 °F 93% 29.95 in 10.0 mi Calm Calm - N/A   Overcast
3:36 AM 35.6 °F 32.8 °F 33.8 °F 93% 29.95 in 10.0 mi NW 3.5 mph - N/A   Overcast
3:56 AM 37.4 °F 34.9 °F 33.8 °F 87% 29.95 in 10.0 mi SW 3.5 mph - N/A   Overcast
4:16 AM 35.6 °F 32.8 °F 33.8 °F 93% 29.94 in 10.0 mi SW 3.5 mph - N/A   Overcast
4:36 AM 35.6 °F 31.7 °F 33.8 °F 93% 29.94 in 10.0 mi SW 4.6 mph - N/A   Overcast
4:56 AM 35.6 °F 29.9 °F 33.8 °F 93% 29.94 in 10.0 mi WSW 6.9 mph - N/A   Overcast
5:16 AM 35.6 °F - 33.8 °F 93% 29.93 in 10.0 mi Calm Calm - N/A   Overcast
5:36 AM 35.6 °F - 33.8 °F 93% 29.93 in 10.0 mi Calm Calm - N/A   Overcast
5:56 AM 35.6 °F 31.7 °F 33.8 °F 93% 29.93 in 10.0 mi WNW 4.6 mph - N/A   Overcast
6:16 AM 35.6 °F 32.8 °F 33.8 °F 93% 29.92 in 10.0 mi WNW 3.5 mph - N/A   Overcast
6:36 AM 35.6 °F - 33.8 °F 93% 29.92 in 10.0 mi Calm Calm - N/A   Overcast
6:56 AM 35.6 °F - 33.8 °F 93% 29.92 in 10.0 mi Calm Calm - N/A   Mostly Cloudy
7:16 AM 35.6 °F 32.8 °F 33.8 °F 93% 29.92 in 10.0 mi SW 3.5 mph - N/A   Mostly Cloudy
7:36 AM 35.6 °F - 33.8 °F 93% 29.92 in 10.0 mi Calm Calm - N/A   Mostly Cloudy
7:56 AM 35.6 °F 32.8 °F 33.8 °F 93% 29.92 in 10.0 mi WSW 3.5 mph - N/A   Mostly Cloudy
8:16 AM 35.6 °F - 33.8 °F 93% 29.92 in 10.0 mi Calm Calm - N/A   Mostly Cloudy
8:36 AM 37.4 °F - 33.8 °F 87% 29.92 in 10.0 mi Calm Calm - N/A   Mostly Cloudy
8:56 AM 37.4 °F 34.9 °F 35.6 °F 93% 29.91 in 10.0 mi WSW 3.5 mph - N/A   Overcast
9:16 AM 37.4 °F - 35.6 °F 93% 29.90 in 10.0 mi Calm Calm - N/A   Overcast
9:36 AM 37.4 °F 33.8 °F 35.6 °F 93% 29.90 in 10.0 mi WSW 4.6 mph - N/A   Overcast
9:56 AM 37.4 °F - 35.6 °F 93% 29.90 in 10.0 mi Calm Calm - N/A   Overcast
10:16 AM 37.4 °F - 35.6 °F 93% 29.89 in 10.0 mi Calm Calm - N/A   Overcast
10:36 AM 37.4 °F 34.9 °F 35.6 °F 93% 29.89 in 10.0 mi WSW 3.5 mph - N/A   Overcast
10:56 AM 37.4 °F 34.9 °F 35.6 °F 93% 29.88 in 10.0 mi West 3.5 mph - N/A   Mostly Cloudy
11:16 AM 37.4 °F - 35.6 °F 93% 29.87 in 10.0 mi Calm Calm - N/A   Mostly Cloudy
11:36 AM 39.2 °F - 35.6 °F 87% 29.86 in 10.0 mi Calm Calm - N/A   Mostly Cloudy
11:56 AM 39.2 °F - 35.6 °F 87% 29.85 in 10.0 mi Calm Calm - N/A   Mostly Cloudy
12:16 PM 39.2 °F - 35.6 °F 87% 29.85 in 10.0 mi Calm Calm - N/A   Mostly Cloudy
12:36 PM 39.2 °F - 33.8 °F 81% 29.84 in 10.0 mi Calm Calm - N/A   Mostly Cloudy
12:56 PM 39.2 °F - 35.6 °F 87% 29.83 in 10.0 mi Calm Calm - N/A   Mostly Cloudy
1:16 PM 39.2 °F 37.0 °F 35.6 °F 87% 29.82 in 10.0 mi ENE 3.5 mph - N/A   Mostly Cloudy
1:36 PM 39.2 °F - 35.6 °F 87% 29.82 in 10.0 mi Calm Calm - N/A   Mostly Cloudy
1:56 PM 39.2 °F - 35.6 °F 87% 29.81 in 10.0 mi Calm Calm - N/A   Mostly Cloudy
2:16 PM 41.0 °F - 35.6 °F 81% 29.80 in 10.0 mi Calm Calm - N/A   Mostly Cloudy
2:36 PM 41.0 °F 39.0 °F 35.6 °F 81% 29.80 in 10.0 mi ENE 3.5 mph - N/A   Mostly Cloudy
2:56 PM 39.2 °F 35.9 °F 33.8 °F 81% 29.79 in 10.0 mi ENE 4.6 mph - N/A   Scattered Clouds
3:16 PM 39.2 °F 37.0 °F 33.8 °F 81% 29.79 in 10.0 mi East 3.5 mph - N/A   Scattered Clouds
3:36 PM 39.2 °F 37.0 °F 33.8 °F 81% 29.79 in 10.0 mi ENE 3.5 mph - N/A   Scattered Clouds
3:56 PM 39.2 °F - 33.8 °F 81% 29.78 in 10.0 mi Calm Calm - N/A   Mostly Cloudy
4:16 PM 39.2 °F 37.0 °F 33.8 °F 81% 29.77 in 10.0 mi East 3.5 mph - N/A   Mostly Cloudy
4:36 PM 37.4 °F 34.9 °F 33.8 °F 87% 29.76 in 10.0 mi South 3.5 mph - N/A   Mostly Cloudy
4:56 PM 37.4 °F - 33.8 °F 87% 29.76 in 10.0 mi Calm Calm - N/A   Mostly Cloudy
5:16 PM 35.6 °F 32.8 °F 33.8 °F 93% 29.76 in 10.0 mi South 3.5 mph - N/A   Mostly Cloudy
5:36 PM 37.4 °F 34.9 °F 33.8 °F 87% 29.76 in 10.0 mi SSW 3.5 mph - N/A   Mostly Cloudy
5:56 PM 37.4 °F 34.9 °F 33.8 °F 87% 29.75 in 10.0 mi SSW 3.5 mph - N/A   Mostly Cloudy
6:16 PM 37.4 °F 32.8 °F 33.8 °F 87% 29.75 in 10.0 mi SSW 5.8 mph - N/A   Mostly Cloudy
6:36 PM 37.4 °F - 33.8 °F 87% 29.75 in 10.0 mi Calm Calm - N/A   Mostly Cloudy
6:56 PM 37.4 °F - 33.8 °F 87% 29.75 in 10.0 mi Calm Calm - N/A   Mostly Cloudy
7:16 PM 37.4 °F 33.8 °F 33.8 °F 87% 29.74 in 10.0 mi West 4.6 mph - N/A   Mostly Cloudy
7:36 PM 37.4 °F 32.1 °F 33.8 °F 87% 29.74 in 10.0 mi WNW 6.9 mph - N/A   Mostly Cloudy
7:56 PM 37.4 °F 33.8 °F 33.8 °F 87% 29.74 in 10.0 mi NNW 4.6 mph - N/A   Mostly Cloudy
8:36 PM 37.4 °F 33.8 °F 33.8 °F 87% 29.73 in 10.0 mi NW 4.6 mph - N/A   Mostly Cloudy
8:56 PM 37.4 °F - 33.8 °F 87% 29.73 in 10.0 mi Calm Calm - N/A   Mostly Cloudy
9:16 PM 37.4 °F 33.8 °F 32.0 °F 81% 29.73 in 10.0 mi SW 4.6 mph - N/A   Mostly Cloudy
9:36 PM 37.4 °F 33.8 °F 33.8 °F 87% 29.73 in 10.0 mi NW 4.6 mph - N/A   Mostly Cloudy
9:56 PM 37.4 °F 34.9 °F 32.0 °F 81% 29.73 in 10.0 mi WNW 3.5 mph - N/A   Mostly Cloudy
10:16 PM 37.4 °F 33.8 °F 32.0 °F 81% 29.73 in 10.0 mi WNW 4.6 mph - N/A   Mostly Cloudy
10:36 PM 37.4 °F 30.8 °F 32.0 °F 81% 29.73 in 10.0 mi NW 9.2 mph - N/A   Mostly Cloudy
10:56 PM 37.4 °F 34.9 °F 32.0 °F 81% 29.73 in 10.0 mi NNW 3.5 mph - N/A   Mostly Cloudy
11:16 PM 37.4 °F 33.8 °F 32.0 °F 81% 29.74 in 10.0 mi West 4.6 mph - N/A   Overcast
11:36 PM 37.4 °F 33.8 °F 30.2 °F 75% 29.74 in 10.0 mi WSW 4.6 mph - N/A   Overcast
11:56 PM 35.6 °F 29.9 °F 30.2 °F 81% 29.75 in 10.0 mi West 6.9 mph - N/A   Overcast